EW9081 Weather Reports


time (UTC)temp
C
wind
direction
speed
KPH
gust
KPH
rain 1hr
cm
rain 24hr
cm
rain mn
cm
humidity
%
barometer
mb
20260903205508 13 165 1.6 6.4 0.03 1.30 1.27 87 1009.2
20260903205008 13 170 1.6 3.2 0.03 1.30 1.27 86 1009.2
20260903204508 13 174 0.0 3.2 0.03 1.30 1.27 87 1009.2
20260903204013 13 174 0.0 6.4 0.03 1.30 1.27 89 1009.4
20260903204009 13 174 0.0 6.4 0.03 1.30 1.27 88 1009.2
20260903203507 13 165 3.2 9.7 0.05 1.30 1.27 86 1009.4
20260903203110 13 186 1.6 9.7 0.03 1.30 1.27 90 1009.4
20260903202619 13 188 3.2 9.7 0.05 1.30 1.27 87 1009.3
20260903201506 13 171 1.6 8.0 0.03 1.27 1.24 88 1009.3
20260903201007 13 76 0.0 6.4 0.05 1.27 1.24 89 1009.3
20260903200512 13 148 0.0 3.2 0.08 1.27 1.24 91 1009.4
20260903200506 13 148 0.0 3.2 0.05 1.27 1.24 90 1009.4
20260903195506 13 55 0.0 8.0 0.08 1.27 1.24 92 1009.4
20260903195006 13 175 1.6 8.0 0.10 1.30 1.24 92 1009.3
20260903194508 13 179 1.6 6.4 0.10 1.30 1.24 93 1009.4
20260903194011 13 163 0.0 6.4 0.13 1.30 1.24 92 1009.3
20260903194006 13 187 1.6 6.4 0.10 1.30 1.24 93 1009.3
20260903193005 13 165 0.0 4.8 0.15 1.30 1.24 92 1009.3
20260903192504 13 163 0.0 4.8 0.15 1.27 1.24 92 1009.4
20260903192010 13 171 1.6 6.4 0.18 1.27 1.22 93 1009.5
20260903192004 13 162 0.0 4.8 0.20 1.30 1.22 92 1009.4
20260903191005 13 165 1.6 6.4 0.18 1.27 1.19 93 1009.5
20260903190504 13 169 3.2 6.4 0.18 1.27 1.19 92 1009.6
20260903190004 13 164 1.6 8.0 0.15 1.24 1.17 92 1009.5
20260903185505 13 170 0.0 8.0 0.15 1.27 1.17 92 1009.5
20260903185004 13 167 0.0 6.4 0.13 1.24 1.14 93 1009.4
20260903184502 13 172 1.6 6.4 0.13 1.24 1.14 92 1009.5
20260903184002 13 167 1.6 8.0 0.13 1.27 1.14 92 1009.6
20260903183502 13 161 3.2 8.0 0.10 1.24 1.12 92 1009.5
20260903183008 13 179 1.6 6.4 0.05 1.22 1.07 92 1009.3
20260903183002 13 171 3.2 8.0 0.08 1.24 1.09 92 1009.4
20260903182002 13 190 1.6 8.0 0.03 1.17 1.04 91 1009.3
20260903181503 13 163 1.6 9.7 0.03 1.19 1.02 91 1009.3
20260903181003 13 172 1.6 9.7 0.03 1.19 1.02 91 1009.2
20260903180501 13 115 1.6 8.0 0.03 1.19 1.02 91 1009.2
20260903180002 13 206 1.6 8.0 0.03 1.22 1.02 91 1009.2
20260903175501 13 176 1.6 8.0 0.03 1.24 1.02 91 1009.2
20260903175001 13 198 1.6 9.7 0.03 1.27 1.02 91 1009.2
20260903174500 13 189 1.6 9.7 0.03 1.30 1.02 90 1009.1
20260903174004 13 167 1.6 9.7 0.03 1.35 1.02 92 1009.2
20260903174000 13 163 1.6 9.7 0.03 1.32 1.02 91 1009.2
20260903173613 13 177 3.2 14.5 0.03 1.35 1.02 91 1009.1
20260903172959 13 147 3.2 14.5 0.03 1.35 1.02 92 1009.1
20260903172000 13 227 4.8 12.9 0.00 1.32 1.02 90 1009.1
20260903171500 13 171 4.8 14.5 0.00 1.32 0.99 90 1009.1
20260903171005 14 99 4.8 19.3 0.03 1.32 0.99 91 1009.1
20260903171001 13 178 4.8 14.5 0.00 1.32 0.99 90 1009.1
20260903170613 14 211 3.2 19.3 0.03 1.32 0.99 92 1009.0
20260903165500 13 184 3.2 11.3 0.03 1.35 0.99 93 1009.0
20260903165000 13 163 3.2 11.3 0.05 1.35 0.99 92 1009.0
20260903164457 13 177 3.2 11.3 0.05 1.35 0.99 92 1009.1
20260903163959 13 156 3.2 11.3 0.10 1.37 0.99 92 1009.1
20260903163503 13 170 1.6 11.3 0.10 1.37 0.99 93 1009.1
20260903163458 13 184 3.2 11.3 0.10 1.37 0.99 93 1009.2
20260903163111 13 169 0.0 4.8 0.15 1.40 0.99 94 1009.3
20260903162459 13 173 1.6 8.0 0.13 1.37 0.99 93 1009.2
20260903161501 13 177 1.6 6.4 0.15 1.40 0.99 93 1009.4
20260903161456 13 69 1.6 6.4 0.15 1.40 0.99 94 1009.3
20260903161109 12 189 1.6 4.8 0.15 1.37 0.97 93 1009.5
20260903160456 12 175 1.6 4.8 0.15 1.37 0.97 93 1009.4
20260903160109 12 157 1.6 3.2 0.20 1.40 0.97 93 1009.5
20260903154954 12 131 0.0 3.2 0.23 1.37 0.97 93 1009.5
20260903154455 12 243 0.0 3.2 0.28 1.37 0.94 93 1009.5
20260903154000 12 21 0.0 3.2 0.25 1.32 0.89 94 1009.7
20260903153955 12 190 0.0 3.2 0.25 1.32 0.89 94 1009.7
20260903152951 12 21 0.0 3.2 0.25 1.32 0.89 93 1009.6
20260903152452 12 165 0.0 3.2 0.25 1.30 0.86 93 1009.6
20260903151950 12 165 0.0 3.2 0.23 1.27 0.84 93 1009.7
20260903151449 12 165 0.0 3.2 0.28 1.27 0.84 95 1009.6
20260903150945 12 165 0.0 3.2 0.30 1.27 0.84 94 1009.6
20260903150451 12 165 0.0 3.2 0.30 1.24 0.81 93 1009.7
20260903150445 12 165 0.0 3.2 0.30 1.24 0.81 94 1009.7
20260903145447 12 165 0.0 3.2 0.25 1.19 0.79 93 1009.7
20260903144946 12 165 0.0 3.2 0.25 1.14 0.71 93 1009.7
20260903144446 12 165 0.0 3.2 0.23 1.09 0.66 93 1009.6
20260903143947 12 165 0.0 3.2 0.23 1.07 0.64 93 1009.6
20260903143451 12 163 0.0 6.4 0.23 1.07 0.64 93 1009.3
20260903143447 12 163 0.0 3.2 0.23 1.07 0.64 93 1009.5
20260903142444 12 163 1.6 6.4 0.20 1.04 0.64 93 1009.4
20260903141943 12 183 1.6 6.4 0.18 1.02 0.58 93 1009.3
20260903141443 12 180 1.6 6.4 0.15 0.99 0.56 93 1009.3
20260903140943 12 157 3.2 9.7 0.13 0.97 0.53 93 1009.2
20260903140449 12 169 3.2 9.7 0.10 0.94 0.51 92 1009.2
20260903140445 12 170 3.2 9.7 0.10 0.94 0.51 93 1009.3
20260903135444 12 165 3.2 9.7 0.10 0.94 0.51 93 1009.1
20260903134941 12 163 3.2 9.7 0.05 0.89 0.46 92 1009.2
20260903134442 12 167 3.2 9.7 0.05 0.86 0.43 92 1009.2
20260903133941 12 170 3.2 11.3 0.03 0.84 0.43 92 1009.0
20260903133441 12 174 4.8 11.3 0.03 0.84 0.41 92 1009.0
20260903132944 12 157 3.2 9.7 0.03 0.84 0.41 93 1008.8
20260903132940 12 180 0.0 6.4 0.03 0.84 0.41 93 1008.7
20260903131940 12 175 1.6 8.0 0.05 0.84 0.41 93 1008.6
20260903131440 12 161 1.6 8.0 0.05 0.84 0.41 93 1008.8
20260903130939 12 171 0.0 4.8 0.08 0.84 0.41 93 1008.8
20260903130437 12 203 0.0 4.8 0.10 0.84 0.41 93 1008.7
20260903125940 12 165 0.0 3.2 0.20 0.84 0.41 93 1008.8
20260903125936 12 170 0.0 3.2 0.15 0.84 0.41 93 1008.7
20260903125549 12 163 0.0 4.8 0.30 0.81 0.38 93 1008.9
20260903124935 12 164 0.0 3.2 0.30 0.84 0.41 93 1008.9
20260903123937 12 167 0.0 4.8 0.33 0.81 0.38 93 1008.8
20260903123435 12 134 0.0 3.2 0.33 0.81 0.38 92 1008.8
20260903122935 12 130 0.0 3.2 0.33 0.81 0.38 92 1008.9
20260903122436 12 175 0.0 3.2 0.33 0.81 0.38 92 1009.0
20260903121935 12 169 0.0 3.2 0.30 0.79 0.36 92 1009.0
20260903121440 12 148 0.0 3.2 0.30 0.76 0.33 92 1009.1
20260903121436 12 169 0.0 3.2 0.33 0.79 0.36 92 1009.0
20260903120433 12 179 0.0 3.2 0.28 0.74 0.33 92 1009.1
20260903115933 12 178 1.6 8.0 0.23 0.69 0.28 92 1009.2
20260903115435 12 178 1.6 8.0 0.18 0.64 0.20 91 1009.2
20260903114938 12 179 4.8 9.7 0.05 0.51 0.08 91 1009.3
20260903114933 12 171 4.8 9.7 0.08 0.53 0.13 91 1009.2
20260903113933 12 163 3.2 8.0 0.03 0.48 0.05 91 1009.1
20260903113432 12 165 1.6 8.0 0.03 0.48 0.05 91 1009.1
20260903112931 12 167 3.2 8.0 0.03 0.48 0.05 90 1009.0
20260903112438 12 174 1.6 4.8 0.00 0.46 0.03 91 1009.1
20260903112431 12 173 3.2 8.0 0.03 0.48 0.05 91 1009.0
20260903111931 12 180 1.6 4.8 0.03 0.48 0.05 91 1009.0
20260903110933 12 183 0.0 4.8 0.00 0.46 0.03 91 1008.9
20260903110431 12 180 1.6 4.8 0.00 0.46 0.03 91 1008.9
20260903105932 12 172 0.0 4.8 0.00 0.46 0.03 91 1008.9
20260903105433 12 168 0.0 4.8 0.00 0.46 0.03 90 1008.9
20260903104931 12 168 1.6 6.4 0.00 0.46 0.03 91 1009.0
20260903104430 12 166 1.6 6.4 0.00 0.46 0.03 90 1009.1
20260903103931 12 169 3.2 6.4 0.00 0.46 0.03 90 1009.0
20260903103429 12 172 1.6 6.4 0.00 0.46 0.03 90 1008.9
20260903102929 12 175 1.6 4.8 0.00 0.46 0.03 90 1009.1
20260903102431 12 186 1.6 3.2 0.00 0.46 0.03 90 1009.0
20260903101929 12 171 1.6 4.8 0.00 0.46 0.03 90 1009.1
20260903101429 12 173 1.6 4.8 0.00 0.46 0.03 90 1009.0
20260903100929 12 172 1.6 4.8 0.00 0.46 0.03 90 1009.0
20260903100435 12 165 1.6 6.4 0.00 0.46 0.03 90 1009.1
20260903100430 12 175 1.6 6.4 0.00 0.46 0.03 90 1009.0
20260903095428 12 171 1.6 8.0 0.00 0.46 0.03 90 1009.1
20260903094927 12 169 1.6 8.0 0.00 0.46 0.03 90 1009.1
20260903094427 12 171 1.6 6.4 0.00 0.46 0.03 89 1009.1
20260903093927 12 171 1.6 6.4 0.00 0.46 0.03 89 1009.0
20260903093427 12 169 3.2 6.4 0.03 0.46 0.03 89 1009.1
20260903092927 12 168 3.2 6.4 0.03 0.46 0.03 89 1009.1
20260903092429 12 180 3.2 8.0 0.03 0.46 0.03 89 1009.1
20260903091927 12 178 3.2 8.0 0.03 0.46 0.03 89 1009.0
20260903091433 12 173 3.2 9.7 0.03 0.46 0.03 89 1009.1
20260903091429 12 180 3.2 9.7 0.03 0.46 0.03 89 1009.1
20260903090427 12 175 4.8 9.7 0.03 0.46 0.03 89 1009.1
20260903085925 12 161 4.8 9.7 0.03 0.46 0.03 89 1009.2
20260903085425 12 155 4.8 12.9 0.03 0.46 0.03 89 1009.2
20260903084925 12 178 6.4 12.9 0.03 0.46 0.03 89 1009.2
20260903084425 12 171 6.4 12.9 0.03 0.46 0.03 89 1009.2
20260903083926 13 175 6.4 12.9 0.03 0.46 0.03 89 1009.3
20260903083425 13 200 4.8 11.3 0.00 0.43 0.00 89 1009.4
20260903082925 13 172 3.2 8.0 0.00 0.43 0.00 89 1009.3
20260903082425 12 169 3.2 8.0 0.00 0.43 0.00 89 1009.3
20260903081929 12 182 3.2 8.0 0.00 0.43 0.00 89 1009.2
20260903081925 12 182 3.2 8.0 0.00 0.43 0.00 89 1009.3
20260903080926 13 163 3.2 9.7 0.00 0.43 0.00 89 1009.3
20260903080426 13 167 3.2 9.7 0.00 0.43 0.00 89 1009.2
20260903075924 13 172 3.2 9.7 0.00 0.43 0.00 90 1009.2
20260903075426 13 167 3.2 9.7 0.00 0.43 0.00 90 1009.4
20260903074924 13 170 3.2 9.7 0.00 0.43 0.00 90 1009.3
20260903074422 13 169 3.2 6.4 0.00 0.43 0.00 90 1009.3
20260903073922 13 164 3.2 9.7 0.00 0.43 0.00 90 1009.3
20260903073424 13 166 3.2 9.7 0.00 0.43 0.00 90 1009.4
20260903072923 13 174 3.2 8.0 0.00 0.43 0.00 90 1009.3
20260903072423 13 173 1.6 8.0 0.00 0.43 0.00 91 1009.3
20260903071922 13 171 0.0 8.0 0.00 0.43 0.00 91 1009.3
20260903071425 12 170 1.6 8.0 0.00 0.43 0.00 91 1009.3
20260903070928 12 163 1.6 4.8 0.00 0.43 0.43 91 1009.3
20260903070924 12 169 1.6 8.0 0.00 0.43 0.00 91 1009.3
20260903070422 12 190 1.6 3.2 0.00 0.43 0.00 91 1009.3
20260903065421 12 178 1.6 8.0 0.00 0.43 0.43 92 1009.1
20260903064922 12 217 1.6 8.0 0.00 0.43 0.43 92 1009.2
20260903064421 11 312 0.0 0.0 0.00 0.43 0.43 91 1009.2
20260903063921 11 312 0.0 0.0 0.00 0.43 0.43 91 1009.2
20260903063423 11 312 0.0 3.2 0.00 0.43 0.43 91 1009.3
20260903062921 11 312 0.0 3.2 0.00 0.43 0.43 90 1009.3
20260903062427 11 312 0.0 3.2 0.00 0.43 0.43 90 1009.4
20260903061926 12 313 0.0 3.2 0.00 0.43 0.43 89 1009.4
20260903061922 12 313 0.0 3.2 0.00 0.43 0.43 90 1009.3
20260903060921 12 313 0.0 3.2 0.00 0.43 0.43 90 1009.4
20260903060536 12 112 0.0 3.2 0.00 0.43 0.43 88 1009.5
20260903060425 12 313 0.0 3.2 0.00 0.43 0.43 89 1009.4
20260903060421 12 313 0.0 3.2 0.00 0.43 0.43 89 1009.4
20260903055421 12 313 0.0 3.2 0.00 0.43 0.43 89 1009.4
20260903054921 12 313 0.0 3.2 0.00 0.43 0.43 89 1009.4
20260903053921 12 180 0.0 3.2 0.00 0.43 0.43 88 1009.4
20260903053421 12 180 0.0 3.2 0.00 0.43 0.43 88 1009.4
20260903052919 12 180 1.6 4.8 0.00 0.43 0.43 88 1009.4
20260903052427 12 164 3.2 8.0 0.00 0.43 0.43 89 1009.3
20260903052420 12 213 3.2 8.0 0.00 0.43 0.43 88 1009.5
20260903051918 12 216 3.2 9.7 0.00 0.43 0.43 88 1009.4
20260903051420 12 170 4.8 9.7 0.00 0.43 0.43 88 1009.3
20260903050420 12 176 3.2 8.0 0.00 0.43 0.43 89 1009.2
20260903045925 12 163 3.2 8.0 0.00 0.43 0.43 89 1009.3
20260903045420 12 178 1.6 6.4 0.00 0.43 0.43 90 1009.3
20260903044917 12 179 0.0 3.2 0.00 0.43 0.43 90 1009.4
20260903044422 12 179 0.0 3.2 0.00 0.43 0.43 90 1009.4
20260903043917 12 179 0.0 3.2 0.00 0.43 0.43 90 1009.3
20260903043418 12 179 0.0 3.2 0.00 0.43 0.43 90 1009.3
20260903042917 12 179 0.0 3.2 0.00 0.43 0.43 91 1009.2
20260903042417 11 179 0.0 3.2 0.00 0.43 0.43 90 1009.2
20260903041917 11 179 0.0 0.0 0.00 0.43 0.43 91 1009.2
20260903041418 11 179 0.0 0.0 0.00 0.43 0.43 90 1009.1
20260903040917 11 179 0.0 0.0 0.00 0.43 0.43 89 1009.0
20260903040420 11 179 0.0 0.0 0.00 0.43 0.43 87 1009.0
20260903040416 11 179 0.0 0.0 0.00 0.43 0.43 89 1009.0
20260903040028 11 179 0.0 3.2 0.00 0.43 0.43 87 1008.9
20260903034916 11 179 0.0 3.2 0.00 0.43 0.43 86 1008.8
20260903034415 12 179 0.0 3.2 0.00 0.43 0.43 85 1008.9
20260903033915 12 179 0.0 3.2 0.00 0.43 0.43 85 1008.7
20260903033416 12 179 0.0 3.2 0.00 0.43 0.43 84 1008.7
20260903032915 12 179 0.0 3.2 0.00 0.43 0.43 84 1008.6
20260903032420 13 179 1.6 6.4 0.00 0.43 0.43 80 1008.4
20260903032415 13 179 0.0 3.2 0.00 0.43 0.43 82 1008.5
20260903031415 13 179 1.6 6.4 0.00 0.43 0.43 78 1008.5
20260903030913 14 198 1.6 8.0 0.00 0.43 0.43 77 1008.4
20260903030412 14 198 1.6 8.0 0.00 0.43 0.43 76 1008.4
20260903025913 14 223 1.6 6.4 0.00 0.43 0.43 76 1008.2
20260903025413 14 189 1.6 3.2 0.00 0.43 0.43 77 1008.2
20260903024913 14 189 1.6 6.4 0.00 0.43 0.43 76 1008.1
20260903024413 14 175 1.6 6.4 0.00 0.43 0.43 77 1008.1
20260903023913 14 184 1.6 4.8 0.00 0.43 0.43 77 1008.2
20260903023413 15 210 1.6 3.2 0.00 0.43 0.43 76 1008.2
20260903022913 15 181 0.0 3.2 0.00 0.43 0.43 76 1008.2
20260903022414 15 181 0.0 3.2 0.00 0.43 0.43 74 1008.2
20260903021911 15 181 0.0 3.2 0.00 0.43 0.43 73 1008.1
20260903021410 16 217 1.6 6.4 0.00 0.43 0.43 73 1008.0
20260903020910 16 207 1.6 6.4 0.00 0.43 0.43 72 1008.0
20260903020410 16 206 3.2 4.8 0.00 0.43 0.43 71 1008.0
20260903015910 16 227 1.6 6.4 0.00 0.43 0.43 72 1007.9
20260903015409 16 225 3.2 6.4 0.00 0.43 0.43 72 1007.9
20260903014908 16 232 3.2 8.0 0.00 0.43 0.43 73 1007.8
20260903014410 16 180 3.2 8.0 0.00 0.43 0.43 72 1007.7
20260903013909 16 233 3.2 9.7 0.00 0.43 0.43 72 1007.8
20260903013408 16 215 4.8 9.7 0.00 0.43 0.43 73 1007.8
20260903012910 16 211 4.8 8.0 0.00 0.43 0.43 72 1007.8
20260903012409 16 209 4.8 8.0 0.00 0.43 0.43 74 1007.8
20260903011910 16 182 3.2 8.0 0.00 0.43 0.43 74 1007.7
20260903011408 16 182 3.2 8.0 0.00 0.43 0.43 77 1007.7
20260903010907 16 225 3.2 8.0 0.00 0.43 0.43 76 1007.6
20260903010411 16 224 4.8 11.3 0.00 0.43 0.43 75 1007.7
20260903010407 16 218 3.2 11.3 0.00 0.43 0.43 76 1007.7
20260903005408 16 206 6.4 16.1 0.00 0.43 0.43 75 1007.6
20260903004906 16 207 6.4 16.1 0.00 0.43 0.43 75 1007.5
20260903004406 16 189 8.0 16.1 0.00 0.43 0.43 75 1007.6
20260903003911 16 184 6.4 12.9 0.00 0.43 0.43 75 1007.5
20260903003907 16 182 6.4 16.1 0.00 0.43 0.43 75 1007.6
20260903003520 17 223 4.8 12.9 0.00 0.43 0.43 73 1007.5
20260903002408 17 192 3.2 8.0 0.00 0.43 0.43 73 1007.4
20260903001908 17 215 3.2 8.0 0.00 0.43 0.43 77 1007.3
20260903001406 17 165 3.2 8.0 0.00 0.43 0.43 76 1007.4
20260903000907 17 244 3.2 8.0 0.00 0.43 0.43 76 1007.3
20260903000406 17 214 3.2 8.0 0.00 0.43 0.43 75 1007.3
20260902235907 17 250 1.6 8.0 0.00 0.43 0.43 81 1007.3
20260902235407 16 232 1.6 8.0 0.00 0.43 0.43 82 1007.2
20260902234907 16 198 1.6 4.8 0.03 0.43 0.43 83 1007.3
20260902234406 16 355 0.0 3.2 0.03 0.43 0.43 85 1007.2
20260902233907 16 355 0.0 3.2 0.03 0.43 0.43 85 1007.1
20260902233407 16 355 0.0 3.2 0.03 0.43 0.43 84 1007.0
20260902232906 16 355 0.0 3.2 0.03 0.43 0.43 86 1007.1
20260902232407 16 355 0.0 3.2 0.03 0.43 0.43 87 1007.1
20260902231911 15 355 0.0 4.8 0.03 0.43 0.43 88 1007.1
20260902231905 15 325 0.0 4.8 0.03 0.43 0.43 86 1007.0
20260902231019 15 305 1.6 4.8 0.03 0.43 0.43 83 1006.9
20260902230909 15 311 1.6 4.8 0.03 0.43 0.43 86 1006.9
20260902230905 15 325 1.6 4.8 0.03 0.43 0.43 86 1007.0
20260902225408 15 299 1.6 4.8 0.00 0.41 0.41 82 1006.8
20260902225404 15 299 0.0 4.8 0.03 0.43 0.43 83 1006.8
20260902225016 16 302 1.6 4.8 0.00 0.41 0.41 80 1006.7
20260902223905 16 266 1.6 8.0 0.00 0.41 0.41 83 1006.6
20260902223900 16 266 1.6 3.2 0.00 0.41 0.41 82 1006.7
20260902223514 16 291 3.2 8.0 0.00 0.41 0.41 81 1006.6
20260902223020 16 302 3.2 6.4 0.00 0.41 0.41 84 1006.3
20260902221901 16 290 1.6 4.8 0.00 0.41 0.41 83 1006.3
20260902221404 16 275 1.6 4.8 0.00 0.41 0.41 84 1006.3
20260902221400 15 233 1.6 4.8 0.00 0.41 0.41 83 1006.3
20260902220359 16 165 0.0 6.4 0.00 0.41 0.41 84 1006.2
20260902215858 16 260 1.6 6.4 0.00 0.41 0.41 87 1006.2
20260902215358 16 259 1.6 6.4 0.00 0.41 0.41 87 1006.3
20260902214856 16 289 1.6 6.4 0.00 0.41 0.41 87 1006.3
20260902214357 15 281 1.6 4.8 0.00 0.41 0.41 88 1006.3
20260902213856 15 235 1.6 4.8 0.00 0.41 0.41 90 1006.2
20260902213358 15 299 0.0 3.2 0.00 0.41 0.41 90 1006.1
20260902212854 15 299 1.6 4.8 0.00 0.41 0.41 90 1006.0
20260902212355 15 299 1.6 6.4 0.00 0.41 0.41 90 1006.0
20260902211859 15 213 3.2 9.7 0.00 0.41 0.41 89 1005.8
20260902211855 15 318 1.6 6.4 0.00 0.41 0.41 90 1005.9
20260902210854 15 207 4.8 9.7 0.00 0.41 0.41 88 1005.8
20260902210401 15 175 4.8 14.5 0.00 0.41 0.41 90 1005.6
20260902210357 15 178 4.8 14.5 0.00 0.41 0.41 89 1005.7
20260902210007 15 172 6.4 12.9 0.00 0.41 0.41 89 1005.6